Regional Weather Roundup
Issued by NWS

Home | Current Version | Previous Version | Graphics & Text | Print | Product List | Glossary On
Versions: 1 2 3 4 5 6 7 8 9 10 11 12 13 14 15 16 17 18 19 20 21 22 23 24 25 26 27 28 29 30 31 32 33 34 35 36 37 38 39 40 41 42 43 44 45 46 47 48 49 50
000
ASUS45 KABQ 261501
RWRNM
NEW MEXICO REGIONAL WEATHER ROUNDUP
NATIONAL WEATHER SERVICE ALBUQUERQUE NM
800 AM MST SUN FEB 26 2017

NOTE: "FAIR" MEANS FEW OR NO CLOUDS BELOW 12,000 FEET AGL WITH NO
       SIGNIFICANT WEATHER OR OBSTRUCTIONS TO VISION.

      THIS PRODUCT IS RELEASED AS TWO VERSIONS.  ONE VERSION NEAR
      THE TOP OF THE HOUR CONTAINING PRELIMINARY DATA FROM ALBUQUERQUE
      AND OTHER STATIONS.  A FINAL VERSION WITH ADDITIONAL DATA IS
      ISSUED ABOUT 10 MINUTES AFTER THE HOUR.

NMZ501-503-504-510>518-261600-
NORTHWEST PLATEAU/NORTHCENTRAL MOUNTAINS

CITY           SKY/WX    TMP DP  RH WIND       PRES   REMARKS
FARMINGTON     FAIR      25  15  66 N3        29.92R
LOS ALAMOS     CLOUDY    28  16  59 CALM      29.90R
SANTA FE       CLOUDY    31  20  63 SW12      29.90R WCI  22
TAOS           FAIR      25  10  54 SW9       29.88R WCI  15
ANGEL FIRE     CLOUDY    22  12  67 SW9G16    29.84R WCI  11

$$
NMZ402-403-502-505>509-261600-
WESTCENTRAL MOUNTAINS/SOUTHWEST MOUNTAINS

CITY           SKY/WX    TMP DP  RH WIND       PRES   REMARKS
GALLUP         CLOUDY    29  24  82 SW6       29.95R WCI  23
GRANTS         CLOUDY    29  23  79 NW8       29.97R WCI  21
SILVER CITY    CLOUDY    40  10  29 NW7       29.96R

$$
NMZ407-409-411-412-261600-
SOUTHERN DESERTS

CITY           SKY/WX    TMP DP  RH WIND       PRES   REMARKS
DEMING         PTSUNNY   43  17  35 W7        29.96R
LAS CRUCES     CLOUDY    42  14  32 CALM      29.97R
HOLLOMAN AFB   CLOUDY    51   8  17 SW9       29.97R
ALAMOGORDO     FAIR      46   9  21 SE6       29.95R
T OR C         PTSUNNY   41  13  31 SE5       29.94R

$$
NMZ519>523-261600-
CENTRAL VALLEYS/CENTRAL HIGHLANDS

CITY           SKY/WX    TMP DP  RH WIND       PRES   REMARKS
ALBUQUERQUE    PTSUNNY   35  22  58 N8        29.96R WCI  29
DOUBLE EAGLE   MOSUNNY   30  21  69 NW5       29.94S WCI  25
MORIARTY ARPT  FAIR      35  22  58 NW10      29.94R WCI  27
CLINES CORNERS FAIR      30  19  63 W23       29.90R WCI  17
BELEN          FAIR      31  16  52 NE5       29.97R WCI  27
SOCORRO        FAIR      42  16  34 W12G21    29.94R

$$
NMZ524>526-539-540-261600-
SOUTHCENTRAL MOUNTAINS

CITY           SKY/WX    TMP DP  RH WIND       PRES   REMARKS
RUIDOSO        NOT AVBL

$$
NMZ527>531-261600-
NORTHEAST HIGHLANDS/NORTHEAST PLAINS

CITY           SKY/WX    TMP DP  RH WIND       PRES   REMARKS
LAS VEGAS      FAIR      32  13  45 W8        29.86R WCI  25
RATON          FAIR      26   7  44 E3        29.83R
CLAYTON        FAIR      32  12  43 W3        29.86R

$$
NMZ532>537-261600-
EASTCENTRAL PLAINS

CITY           SKY/WX    TMP DP  RH WIND       PRES   REMARKS
TUCUMCARI      FAIR      42  12  29 W8        29.87R
CANNON AFB     NOT AVBL
CLOVIS AIRPORT FAIR      45  16  31 NW15      29.89R

$$
NMZ028-029-538-261600-
SOUTHEAST PLAINS

CITY           SKY/WX    TMP DP  RH WIND       PRES   REMARKS
ROSWELL        FAIR      39  18  42 N7          N/A  WCI  34
ARTESIA        FAIR      39  19  45 CALM      29.91R
CARLSBAD       FAIR      48  22  35 NW3       29.90R
HOBBS          SUNNY     48  18  29 SW5       29.91R


$$



USA.gov is the U.S. government's official web portal to all federal, state and local government web resources and services.